Regional Weather Roundup
Issued by NWS Memphis, TN

Home | Current Version | Previous Version | Text Only | Print | Product List | Glossary On
Versions: 1 2 3 4 5 6 7 8 9 10 11 12 13 14 15 16 17 18 19 20 21 22 23 24 25 26 27 28 29 30 31 32 33 34 35 36 37 38 39 40 41 42 43 44 45 46 47 48 49 50
000
ASUS44 KMEG 302210
RWRMEG
MEMPHIS CWA HOURLY WEATHER ROUNDUP
NATIONAL WEATHER SERVICE MEMPHIS TN
500 PM CDT TUE JUN 30 2015

...WEST TENNESSEE...

CITY           SKY/WX    TMP DP  RH WIND       PRES   REMARKS
MEMPHIS INTL   CLOUDY    86  72  62 SW9       29.92F HX  92
NWS MEMPHIS      N/A     85 N/A N/A MISG        N/A
JACKSON        MOSUNNY   85  68  56 W9        29.91F
LEXINGTON      PTSUNNY   82  70  65 W7        29.91S
DYERSBURG        N/A    N/A N/A N/A MISG        N/A
PARIS          SUNNY     81  68  65 W6        29.90F


...EASTERN ARKANSAS...

CITY           SKY/WX    TMP DP  RH WIND       PRES   REMARKS
JONESBORO      MOSUNNY   89  64  43 W8        29.90F HX  90
WEST MEMPHIS   SUNNY     86  69  56 SW6       29.90F HX  90
BATESVILLE     MOSUNNY   88  70  55 SW5       29.92S HX  92
NEWPORT        SUNNY     91  66  43 W9        29.91F HX  93
WALNUT RIDGE   SUNNY     90  64  43 W10       29.89F HX  91
BLYTHEVILLE    SUNNY     87  67  51 W10       29.90F HX  90
SEARCY         SUNNY     87  71  58 SW6       29.93F HX  93
STUTTGART      SUNNY     90  68  48 MISG      29.93F HX  93
PINE BLUFF     MOSUNNY   90  70  51 W5        29.93F HX  95
MONTICELLO     MOSUNNY   91  74  57 W7        29.93F HX 100


...NORTH MISSISSIPPI...

CITY           SKY/WX    TMP DP  RH WIND       PRES   REMARKS
TUPELO         MOSUNNY   81  71  71 W8        29.93F
OXFORD         SUNNY     79  72  78 SW6       29.96F
OLIVE BRANCH   CLOUDY    84  72  65 W7        29.93S
TUNICA         SUNNY     86  70  58 W8        29.93F HX  90
CLARKSDALE     SUNNY     86  73  66 W3        29.94S HX  93
CORINTH        MOSUNNY   82  72  69 SW8       29.92S
GREENWOOD      MOSUNNY   86  75  69 W5        29.94F HX  95
COLUMBUS       CLOUDY    82  70  67 SW7       29.95F
STARKVILLE     CLOUDY    79  72  78 SW3       29.96S
GOLDEN TRIANGL CLOUDY    81  70  69 W5        29.95F


...SOUTHEAST MISSOURI...

CITY           SKY/WX    TMP DP  RH WIND       PRES   REMARKS
WEST PLAINS    MOSUNNY   84  67  56 W9        29.96S
POPLAR BLUFF   SUNNY     86  68  54 SW8       29.88F
CAPE GIRARDEAU SUNNY     85  69  58 W10       29.87F


...NORTHWEST ALABAMA...

CITY           SKY/WX    TMP DP  RH WIND       PRES   REMARKS
MUSCLE SHOALS  MOSUNNY   83  68  60 W12       29.94F


...MIDDLE TENNESSEE...

CITY           SKY/WX    TMP DP  RH WIND       PRES   REMARKS
NASHVILLE      CLOUDY    84  68  58 W12       29.90S
CLARKSVILLE    SUNNY     83  69  62 W12       29.88S
COLUMBIA       SUNNY     84  72  65 W7        29.91S


...WESTERN KENTUCKY...

CITY           SKY/WX    TMP DP  RH WIND       PRES   REMARKS
PADUCAH        SUNNY     85  68  56 W7        29.87S
FORT CAMPBELL  MOSUNNY   82  68  61 W12       29.88S


...CENTRAL ARKANSAS...

CITY           SKY/WX    TMP DP  RH WIND       PRES   REMARKS
LITTLE ROCK    MOSUNNY   91  64  40 SW3       29.92F HX  92


SKY/WX REPORTED AS FAIR MEANS FEW OR NO CLOUDS BELOW
12 THOUSAND FEET.




USA.gov is the U.S. government's official web portal to all federal, state and local government web resources and services.